Regional Weather Roundup
Issued by NWS

Home | Current Version | Previous Version | Graphics & Text | Print | Product List | Glossary On
Versions: 1 2 3 4 5 6 7 8 9 10 11 12 13 14 15 16 17 18 19 20 21 22 23 24 25 26 27 28 29 30 31 32 33 34 35 36 37 38 39 40 41 42 43 44 45 46 47 48 49 50
000
ASUS43 KDTX 010310
RWRMI
MICHIGAN HOURLY REGIONAL WEATHER ROUNDUP
NATIONAL WEATHER SERVICE DETROIT/PONTIAC MI
1000 PM EST SAT FEB 28 2015

NOTE: "FAIR" INDICATES FEW OR NO CLOUDS BELOW 12,000 FEET WITH NO
SIGNIFICANT WEATHER AND/OR OBSTRUCTION TO VISIBILITY.

MIZ047>049-052>055-059>063-066>070-074>076-081>083-010400-
SOUTHEAST LOWER MICHIGAN

CITY           SKY/WX    TMP DP  RH WIND       PRES   REMARKS
ADRIAN         CLOUDY    15   4  61 SE3       30.58R
ALMA           CLOUDY    11   2  66 S3        30.54S
ANN ARBOR      CLOUDY    14   3  61 SE6       30.56F WCI   5
BAD AXE        PTCLDY    10   2  70 S9        30.56F WCI  -3
CARO           MOCLDY     7   0  73 CALM      30.55F
DETROIT CITY   CLOUDY    17   4  56 S8        30.59F WCI   7
DETROIT        CLOUDY    16   4  59 E3        30.59F
FLINT          CLOUDY    17   1  49 S5        30.55F WCI  10
GROSSE ILE     CLOUDY    14   5  67 E3        30.58S
HILLSDALE      CLOUDY    15   2  55 S5        30.52S WCI   8
HOWELL         CLOUDY    15   3  59 S7        30.54S WCI   5

CITY           SKY/WX    TMP DP  RH WIND       PRES   REMARKS
JACKSON        CLOUDY    15   1  53 S6        30.54S WCI   6
LAMBERTVILLE   CLOUDY    18   7  62 CALM      30.58F
LANSING        CLOUDY    17   2  51 S9        30.55R WCI   6
LAPEER         FAIR      12   3  66 SE3       30.56S
MASON          CLOUDY    15   3  57 S8        30.55S WCI   4
MONROE         CLOUDY    16   7  67 SE8       30.57F WCI   5
MT. CLEMENS    MOCLDY    11   4  74 S3        30.58F
PONTIAC        CLOUDY    14   2  58 SE5       30.54S WCI   6
PORT HOPE        N/A     13   0  56 S6        30.56F WCI   4
PORT HURON     MOCLDY     7   1  78 SE3       30.59F
TRI CITIES     MOCLDY    15   0  51 S6        30.56F WCI   6
TROY           CLOUDY    18   1  48 CALM      30.59F
SAGINAW HB     CLOUDY    14   3  62 S6        30.56S WCI   5
$$
MIZ043>046-050>051-056>058-064>065-071>073-077>080-010400-
SOUTHWEST LOWER MICHIGAN

CITY           SKY/WX    TMP DP  RH WIND       PRES   REMARKS
BATTLE CREEK   CLOUDY    17   2  51 S9        30.53F WCI   6
BENTON HARBOR  LGT SNOW  17  10  74 SE7       30.53F WCI   8
BIG RAPIDS     MOCLDY    11   2  68 CALM      30.49F
COLDWATER      CLOUDY    16   3  56 SE5       30.53F WCI   8
FREMONT        MOCLDY    13   3  66 CALM      30.51F
HOLLAND        CLOUDY    15   4  61 SE3       30.54F
GRAND RAPIDS   CLOUDY    16   3  56 S6        30.53F WCI   7
IONIA          CLOUDY    16   4  58 S7        30.53S WCI   7
KALAMAZOO      CLOUDY    17   3  54 S6        30.52F WCI   9
LUDINGTON      MOCLDY    16   5  62 S5        30.51F WCI   8
MARSHALL       CLOUDY    15   1  54 S5        30.54S WCI   7
MOUNT PLEASANT MOCLDY    12  -1  57 CALM      30.52F
MUSKEGON       CLOUDY    15   6  67 SE6       30.53F WCI   6
SOUTH HAVEN    LGT SNOW  19   7  58 S7        30.53F WCI  10
$$
MIZ016>042-010400-
NORTHERN LOWER MICHIGAN

CITY           SKY/WX    TMP DP  RH WIND       PRES   REMARKS
ALPENA         CLEAR     16   4  59 S8        30.51S WCI   5
BEAVER ISLAND  CLEAR     17  10  74 SW12G18   30.46F WCI   4
BELLAIRE       CLEAR      3   0  84 CALM      30.51S
CADILLAC       PTCLDY    11   2  66 CALM      30.44F
CHARLEVOIX     CLEAR     11   6  79 CALM      30.52R
FRANKFORT      PTCLDY    16   9  74 S6        30.49F WCI   7
GAYLORD        CLEAR     10   0  63 S6        30.44F WCI   0
GRAYLING       CLEAR     13   2  61 S7        30.47F WCI   3
HARBOR SPRINGS CLEAR      6   3  86 CALM      30.49R
HOUGHTON LAKE  CLEAR     12   0  58 S9        30.48F WCI   0
MANISTEE       PTCLDY    12   3  67 CALM      30.51F
OSCODA         CLEAR      7  -2  67 SW6       30.53F WCI  -3
PELLSTON       CLEAR      0  -4  83 CALM      30.49S
ROGERS CITY    CLEAR      5   3  91 S3        30.50S
TRAVERSE CITY  CLEAR     14   5  67 CALM      30.49F
$$
MIZ007>008-015-010400-
EASTERN UPPER MICHIGAN

CITY           SKY/WX    TMP DP  RH WIND       PRES   REMARKS
KINROSS        CLEAR     10   9  92 S6        30.45F WCI   1
MACKINAC ISLAN CLEAR     15   7  71 SW8       30.46F WCI   3
NEWBERRY       CLEAR     12  10  90 S16       30.41S WCI  -5
S. S. MARIE    CLEAR     10   4  76 SE3       30.46F
MUNISING         N/A     13  -2  51 S8        30.39F WCI   2
$$
MIZ004>006-011>014-085-010400-
CENTRAL UPPER MICHIGAN

CITY           SKY/WX    TMP DP  RH WIND       PRES   REMARKS
MANISTIQUE     CLEAR     15   9  76 W3        30.43S
ESCANABA       CLEAR     12   0  57 SW7       30.44S WCI   2
MENOMINEE      MOCLDY    12  -2  52 SW6       30.43F WCI   3
SAWYER-GWINN   CLEAR     12  -2  52 SW15      30.33F WCI  -4
$$
MIZ001>003-009>011-084-010400-
WESTERN UPPER MICHIGAN

CITY           SKY/WX    TMP DP  RH WIND       PRES   REMARKS
IRON MOUNTAIN  MOCLDY    12  -3  51 S8        30.34F WCI   0
HOUGHTON       CLEAR     15  -4  42 SW9       30.27F WCI   3
COPPER HARBOR    N/A     10   0  63 W6        30.29F WCI   0
IRONWOOD       MOCLDY    12  -2  52 S14G20    30.25F WCI  -3
$$

ABBREVIATIONS USED IN REMARKS
   TC - TEMPERATURE IN CELSIUS
  WCI - WIND CHILL INDEX
   HX - HEAT INDEX
  VSB - VISIBILITY



USA.gov is the U.S. government's official web portal to all federal, state and local government web resources and services.